Location: Dallas
(32.7833°N, 96.8000°W)
Time: 11:19:57
(UTC-06:00)

Envisat - Pass Details

Date: 13 April 2018
Orbit: 764 x 766 km, 98.1° (Epoch: 25 February)

Event Time Altitude Azimuth Distance (km) Brightness Sun altitude
Exits shadow 20:35:26 - 151° (SSE) 3,134 5.7 -8.9°
Reaches altitude 10° 20:37:36 10° 146° (SE) 2,291 5.0 -9.3°
Maximum altitude 20:42:25 47° 73° (ENE) 1,007 3.3 -10.3°
Drops below altitude 10° 20:47:16 10° 1° (N) 2,305 5.7 -11.2°
Sets 20:49:39 0° 356° (N) 3,235 6.6 -11.7°
